This is the latest recevied weather packets stored in our database for station/object KD4KKF. If no packets are shown the sender has not sent any weather packets the latest 10 day(s).
| Time | Temp. | Humidity | Pressure | Rain* | Wind** | Luminosity | Snow |
|---|---|---|---|---|---|---|---|
| 1777327820 | 28.89° C | 66% | 1012.9 hPa | 0 mm | - | 332 W/m² | - |
| 1777327517 | 28.89° C | 66% | 1012.9 hPa | 0 mm | - | 212 W/m² | - |
| 1777327215 | 28.33° C | 68% | 1012.6 hPa | 0 mm | - | 381 W/m² | - |
| 1777326911 | 29.44° C | 66% | 1012.5 hPa | 0 mm | - | 203 W/m² | - |
| 1777326609 | 28.89° C | 66% | 1012.7 hPa | 0 mm | - | 352 W/m² | - |
| 1777326305 | 28.89° C | 66% | 1012.5 hPa | 0 mm | - | 423 W/m² | - |
| 1777326002 | 28.33° C | 66% | 1012.6 hPa | 0 mm | - | 249 W/m² | - |
| 1777325701 | 28.89° C | 66% | 1012.7 hPa | 0 mm | - | 396 W/m² | - |
| 1777325399 | 28.89° C | 66% | 1012.5 hPa | 0 mm | - | 438 W/m² | - |
| 1777325096 | 28.33° C | 66% | 1012.8 hPa | 0 mm | - | 262 W/m² | - |
| 1777324792 | 28.89° C | 65% | 1012.5 hPa | 0 mm | - | 241 W/m² | - |
| 1777324490 | 28.33° C | 66% | 1012.7 hPa | 0 mm | - | 200 W/m² | - |
| 1777324187 | 28.33° C | 66% | 1012.8 hPa | 0 mm | - | 189 W/m² | - |
| 1777323886 | 28.89° C | 66% | 1012.8 hPa | 0 mm | - | 201 W/m² | - |
| 1777323582 | 28.33° C | 65% | 1013.1 hPa | 0 mm | - | 333 W/m² | - |
| 1777323279 | 27.78° C | 67% | 1012.6 hPa | 0 mm | - | 167 W/m² | - |
| 1777322978 | 28.33° C | 67% | 1012.7 hPa | 0 mm | - | 177 W/m² | - |
| 1777322675 | 28.33° C | 66% | 1012.4 hPa | 0 mm | - | 166 W/m² | - |
| 1777322373 | 29.44° C | 65% | 1012.6 hPa | 0 mm | - | 277 W/m² | - |
| 1777322069 | 29.44° C | 64% | 1012.7 hPa | 0 mm | - | 581 W/m² | - |
| 1777321766 | 29.44° C | 65% | 1012.6 hPa | 0 mm | - | 625 W/m² | - |
| 1777321463 | 29.44° C | 64% | 1012.8 hPa | 0 mm | - | 608 W/m² | - |
| 1777321160 | 29.44° C | 64% | 1012.9 hPa | 0 mm | - | 615 W/m² | - |
| 1777320858 | 29.44° C | 65% | 1013.2 hPa | 0 mm | - | 379 W/m² | - |
| 1777320554 | 28.89° C | 64% | 1013.5 hPa | 0 mm | - | 629 W/m² | - |
* Rain latest hour (hover to see other rain measurements)
** Current wind speed in m/s (hover to see current wind gust speed)